| time (UTC) | temp F | wind direction | speed knots | gust knots | rain 1hr in | rain 24hr in | rain mn in | humidity % | barometer mb |
| 20260508092722 | 33 | 107 | 0.0 | 0.0 | 0.00 | 0.00 | 0.00 | 99 | 1017.6 |
| 20260508092142 | 33 | 107 | 0.0 | 0.0 | 0.00 | 0.00 | 0.00 | 99 | 1017.6 |
| 20260508091528 | 33 | 107 | 0.0 | 0.0 | 0.00 | 0.00 | 0.00 | 99 | 1017.6 |
| 20260508090932 | 33 | 107 | 0.0 | 0.0 | 0.00 | 0.00 | 0.00 | 98 | 1017.9 |
| 20260508085139 | 34 | 107 | 0.0 | 0.0 | 0.00 | 0.00 | 0.00 | 98 | 1017.6 |
| 20260508084547 | 34 | 107 | 0.0 | 0.0 | 0.00 | 0.00 | 0.00 | 98 | 1017.6 |
| 20260508083912 | 34 | 107 | 0.0 | 0.0 | 0.00 | 0.00 | 0.00 | 98 | 1017.6 |
| 20260508083313 | 35 | 107 | 0.0 | 0.0 | 0.00 | 0.00 | 0.00 | 98 | 1017.9 |
| 20260508082735 | 35 | 107 | 0.0 | 0.0 | 0.00 | 0.00 | 0.00 | 98 | 1017.6 |
| 20260508082150 | 34 | 107 | 0.0 | 0.0 | 0.00 | 0.00 | 0.00 | 98 | 1017.6 |
| 20260508081537 | 34 | 107 | 0.0 | 0.0 | 0.00 | 0.00 | 0.00 | 98 | 1017.6 |
| 20260508080328 | 34 | 107 | 0.0 | 0.0 | 0.00 | 0.00 | 0.00 | 98 | 1017.2 |
| 20260508075731 | 34 | 107 | 0.0 | 0.0 | 0.00 | 0.00 | 0.00 | 98 | 1017.6 |
| 20260508075120 | 34 | 107 | 0.0 | 0.0 | 0.00 | 0.00 | 0.00 | 98 | 1017.6 |
| 20260508074529 | 34 | 107 | 0.0 | 0.0 | 0.00 | 0.00 | 0.00 | 98 | 1017.6 |
| 20260508073327 | 35 | 107 | 0.0 | 0.0 | 0.00 | 0.00 | 0.00 | 98 | 1017.6 |
| 20260508072733 | 35 | 107 | 0.0 | 0.0 | 0.00 | 0.00 | 0.00 | 98 | 1017.6 |
| 20260508072115 | 35 | 107 | 0.0 | 0.0 | 0.00 | 0.00 | 0.00 | 98 | 1017.6 |
| 20260508071537 | 36 | 107 | 0.0 | 0.0 | 0.00 | 0.00 | 0.00 | 98 | 1017.6 |
| 20260508070951 | 36 | 107 | 0.0 | 0.9 | 0.00 | 0.00 | 0.00 | 98 | 1017.6 |
| 20260508070338 | 35 | 107 | 0.0 | 0.0 | 0.00 | 0.00 | 0.00 | 98 | 1017.6 |
| 20260508065738 | 34 | 107 | 0.0 | 0.0 | 0.00 | 0.00 | 0.00 | 98 | 1017.6 |
| 20260508065133 | 34 | 107 | 0.0 | 0.0 | 0.00 | 0.00 | 0.00 | 98 | 1017.9 |
| 20260508064520 | 35 | 107 | 0.0 | 0.0 | 0.00 | 0.00 | 0.00 | 98 | 1017.6 |
| 20260508063925 | 35 | 107 | 0.0 | 0.0 | 0.00 | 0.00 | 0.00 | 98 | 1017.9 |
| 20260508063318 | 35 | 107 | 0.0 | 0.0 | 0.00 | 0.00 | 0.00 | 98 | 1017.9 |
| 20260508062742 | 35 | 107 | 0.0 | 0.0 | 0.00 | 0.00 | 0.00 | 98 | 1017.9 |
| 20260508062146 | 35 | 107 | 0.0 | 0.0 | 0.00 | 0.00 | 0.00 | 97 | 1017.9 |
| 20260508061530 | 36 | 107 | 0.0 | 0.0 | 0.00 | 0.00 | 0.00 | 97 | 1017.6 |
| 20260508060909 | 36 | 107 | 0.0 | 0.0 | 0.00 | 0.00 | 0.00 | 97 | 1017.6 |
| 20260508060341 | 36 | 107 | 0.0 | 0.0 | 0.00 | 0.00 | 0.00 | 97 | 1017.6 |
| 20260508055751 | 36 | 107 | 0.0 | 0.0 | 0.00 | 0.00 | 0.00 | 97 | 1017.9 |
| 20260508055141 | 35 | 107 | 0.0 | 0.0 | 0.00 | 0.00 | 0.00 | 97 | 1017.6 |
| 20260508054544 | 35 | 107 | 0.0 | 0.0 | 0.00 | 0.00 | 0.00 | 97 | 1017.6 |
| 20260508052738 | 36 | 107 | 0.0 | 0.0 | 0.00 | 0.00 | 0.00 | 97 | 1017.9 |
| 20260508052132 | 36 | 107 | 0.0 | 0.0 | 0.00 | 0.00 | 0.00 | 97 | 1017.9 |
| 20260508051526 | 36 | 107 | 0.0 | 0.0 | 0.00 | 0.00 | 0.00 | 97 | 1017.9 |
| 20260508050945 | 36 | 107 | 0.0 | 0.0 | 0.00 | 0.00 | 0.00 | 96 | 1017.9 |
| 20260508050309 | 36 | 107 | 0.0 | 0.0 | 0.00 | 0.00 | 0.00 | 96 | 1017.9 |
| 20260508045724 | 37 | 107 | 0.0 | 0.0 | 0.00 | 0.00 | 0.00 | 96 | 1017.9 |
| 20260508045128 | 37 | 107 | 0.0 | 0.0 | 0.00 | 0.00 | 0.00 | 96 | 1017.9 |
| 20260508044542 | 37 | 107 | 0.0 | 0.0 | 0.00 | 0.00 | 0.00 | 96 | 1017.9 |
| 20260508043936 | 38 | 107 | 0.0 | 0.0 | 0.00 | 0.00 | 0.00 | 96 | 1017.9 |
| 20260508043347 | 38 | 107 | 0.0 | 0.0 | 0.00 | 0.00 | 0.00 | 95 | 1017.6 |
| 20260508042723 | 38 | 107 | 0.0 | 0.0 | 0.00 | 0.00 | 0.00 | 95 | 1017.6 |
| 20260508042141 | 38 | 107 | 0.0 | 0.0 | 0.00 | 0.00 | 0.00 | 95 | 1017.9 |
| 20260508041532 | 38 | 107 | 0.0 | 0.0 | 0.00 | 0.00 | 0.00 | 95 | 1017.6 |
| 20260508040318 | 38 | 107 | 0.0 | 0.0 | 0.00 | 0.00 | 0.00 | 94 | 1017.6 |
| 20260508035120 | 39 | 107 | 0.0 | 0.0 | 0.00 | 0.00 | 0.00 | 93 | 1017.6 |
| 20260508034526 | 39 | 107 | 0.0 | 0.0 | 0.00 | 0.00 | 0.00 | 92 | 1017.6 |
| 20260508033916 | 40 | 107 | 0.0 | 0.9 | 0.00 | 0.00 | 0.00 | 93 | 1017.6 |
| 20260508033321 | 40 | 107 | 0.0 | 0.0 | 0.00 | 0.00 | 0.00 | 92 | 1017.6 |
| 20260508032734 | 40 | 107 | 0.9 | 1.7 | 0.00 | 0.00 | 0.00 | 92 | 1017.6 |
| 20260508032147 | 40 | 107 | 0.0 | 0.0 | 0.00 | 0.00 | 0.00 | 92 | 1017.6 |
| 20260508031526 | 40 | 107 | 0.0 | 0.0 | 0.00 | 0.00 | 0.00 | 91 | 1017.6 |
| 20260508030931 | 40 | 107 | 0.0 | 0.0 | 0.00 | 0.00 | 0.00 | 91 | 1017.6 |
| 20260508030311 | 41 | 107 | 0.0 | 0.0 | 0.00 | 0.00 | 0.00 | 91 | 1017.6 |
| 20260508025719 | 41 | 107 | 0.0 | 0.0 | 0.00 | 0.00 | 0.00 | 90 | 1017.6 |
| 20260508025114 | 41 | 107 | 0.0 | 0.0 | 0.00 | 0.00 | 0.00 | 89 | 1017.6 |
| 20260508024525 | 41 | 107 | 0.0 | 0.0 | 0.00 | 0.00 | 0.00 | 88 | 1017.6 |
| 20260508023946 | 42 | 107 | 0.0 | 0.0 | 0.00 | 0.00 | 0.00 | 87 | 1017.2 |
| 20260508023341 | 42 | 107 | 0.0 | 0.0 | 0.00 | 0.00 | 0.00 | 86 | 1017.2 |
| 20260508022723 | 42 | 107 | 0.0 | 0.0 | 0.00 | 0.00 | 0.00 | 85 | 1017.2 |
| 20260508021515 | 43 | 107 | 0.0 | 0.0 | 0.00 | 0.00 | 0.00 | 84 | 1017.2 |
| 20260508020945 | 43 | 107 | 0.0 | 0.0 | 0.00 | 0.00 | 0.00 | 84 | 1016.9 |
| 20260508020349 | 44 | 107 | 0.0 | 0.0 | 0.00 | 0.00 | 0.00 | 80 | 1016.9 |
| 20260508015738 | 44 | 107 | 0.0 | 0.0 | 0.00 | 0.00 | 0.00 | 80 | 1016.9 |
| 20260508015145 | 45 | 107 | 0.0 | 0.0 | 0.00 | 0.00 | 0.00 | 79 | 1016.5 |
| 20260508014517 | 45 | 107 | 0.0 | 0.0 | 0.00 | 0.00 | 0.00 | 77 | 1016.5 |
| 20260508012725 | 47 | 106 | 0.0 | 0.0 | 0.00 | 0.00 | 0.00 | 72 | 1016.5 |
| 20260508011528 | 49 | 106 | 0.0 | 0.0 | 0.00 | 0.00 | 0.00 | 64 | 1016.2 |
| 20260508010935 | 50 | 106 | 0.0 | 0.0 | 0.00 | 0.00 | 0.00 | 63 | 1016.2 |
| 20260508010349 | 50 | 100 | 0.0 | 0.0 | 0.00 | 0.00 | 0.00 | 62 | 1016.2 |
| 20260508005736 | 52 | 112 | 0.9 | 0.9 | 0.00 | 0.00 | 0.00 | 61 | 1015.9 |
| 20260508003908 | 54 | 292 | 0.9 | 1.7 | 0.00 | 0.00 | 0.00 | 44 | 1016.2 |
| 20260508003340 | 55 | 26 | 2.6 | 3.5 | 0.00 | 0.00 | 0.00 | 46 | 1015.9 |
| 20260508002734 | 56 | 202 | 0.9 | 1.7 | 0.00 | 0.00 | 0.00 | 42 | 1015.9 |
| 20260508002111 | 56 | 332 | 2.6 | 2.6 | 0.00 | 0.00 | 0.00 | 38 | 1015.5 |
| 20260508001532 | 57 | 0 | 2.6 | 2.6 | 0.00 | 0.00 | 0.00 | 36 | 1015.5 |
| 20260508000949 | 57 | 343 | 0.9 | 6.1 | 0.00 | 0.00 | 0.00 | 36 | 1015.5 |
| 20260508000335 | 57 | 335 | 2.6 | 2.6 | 0.00 | 0.00 | 0.00 | 35 | 1015.2 |
| 20260507235747 | 58 | 330 | 2.6 | 5.2 | 0.00 | 0.00 | 0.00 | 35 | 1015.5 |
| 20260507235119 | 58 | 119 | 0.9 | 3.5 | 0.00 | 0.00 | 0.00 | 34 | 1015.5 |
| 20260507234551 | 58 | 246 | 0.0 | 3.5 | 0.00 | 0.00 | 0.00 | 35 | 1015.2 |
| 20260507233938 | 59 | 314 | 0.9 | 2.6 | 0.00 | 0.00 | 0.00 | 35 | 1015.2 |
| 20260507233347 | 59 | 313 | 1.7 | 6.1 | 0.00 | 0.00 | 0.00 | 33 | 1015.2 |
| 20260507231535 | 61 | 245 | 4.3 | 6.1 | 0.00 | 0.00 | 0.00 | 33 | 1014.9 |
| 20260507225744 | 62 | 277 | 1.7 | 6.1 | 0.00 | 0.00 | 0.00 | 33 | 1014.9 |
| 20260507225120 | 62 | 309 | 4.3 | 7.0 | 0.00 | 0.00 | 0.00 | 32 | 1014.5 |
| 20260507224527 | 62 | 247 | 4.3 | 5.2 | 0.00 | 0.00 | 0.00 | 32 | 1014.5 |
| 20260507223918 | 63 | 241 | 3.5 | 7.8 | 0.00 | 0.00 | 0.00 | 31 | 1014.5 |
| 20260507223338 | 62 | 9 | 4.3 | 7.0 | 0.00 | 0.00 | 0.00 | 32 | 1014.5 |
| 20260507222719 | 63 | 315 | 5.2 | 7.8 | 0.00 | 0.00 | 0.00 | 30 | 1014.5 |
| 20260507221516 | 63 | 241 | 3.5 | 8.7 | 0.00 | 0.00 | 0.00 | 28 | 1014.9 |
| 20260507220312 | 63 | 283 | 2.6 | 5.2 | 0.00 | 0.00 | 0.00 | 33 | 1014.5 |
| 20260507215738 | 64 | 15 | 4.3 | 13.0 | 0.00 | 0.00 | 0.00 | 31 | 1014.2 |
| 20260507215144 | 63 | 346 | 3.5 | 7.0 | 0.00 | 0.00 | 0.00 | 32 | 1014.2 |
| 20260507213944 | 63 | 252 | 8.7 | 9.6 | 0.00 | 0.00 | 0.00 | 31 | 1013.8 |
| 20260507212737 | 65 | 260 | 7.0 | 8.7 | 0.00 | 0.00 | 0.00 | 32 | 1013.8 |
| 20260507211532 | 63 | 345 | 4.3 | 5.2 | 0.00 | 0.00 | 0.00 | 34 | 1013.8 |
| 20260507210928 | 62 | 301 | 1.7 | 5.2 | 0.00 | 0.00 | 0.00 | 37 | 1013.8 |
| 20260507210344 | 65 | 1 | 6.1 | 8.7 | 0.00 | 0.00 | 0.00 | 31 | 1013.8 |
| 20260507204547 | 65 | 310 | 2.6 | 7.8 | 0.00 | 0.00 | 0.00 | 37 | 1013.8 |
| 20260507202737 | 64 | 247 | 6.1 | 8.7 | 0.00 | 0.00 | 0.00 | 34 | 1013.8 |
| 20260507202152 | 65 | 356 | 9.6 | 17.4 | 0.00 | 0.00 | 0.00 | 34 | 1013.8 |
| 20260507201538 | 64 | 28 | 0.9 | 3.5 | 0.00 | 0.00 | 0.00 | 33 | 1013.8 |
| 20260507200938 | 65 | 254 | 8.7 | 10.4 | 0.00 | 0.00 | 0.00 | 35 | 1013.8 |
| 20260507195752 | 65 | 260 | 3.5 | 10.4 | 0.00 | 0.00 | 0.00 | 38 | 1013.8 |
| 20260507195151 | 64 | 340 | 4.3 | 8.7 | 0.00 | 0.00 | 0.00 | 37 | 1014.2 |
| 20260507194514 | 65 | 264 | 5.2 | 7.8 | 0.00 | 0.00 | 0.00 | 33 | 1013.8 |
| 20260507193951 | 64 | 305 | 2.6 | 5.2 | 0.00 | 0.00 | 0.00 | 34 | 1014.5 |
| 20260507192732 | 64 | 246 | 3.5 | 7.0 | 0.00 | 0.00 | 0.00 | 42 | 1014.2 |
| 20260507192146 | 64 | 14 | 6.1 | 10.4 | 0.00 | 0.00 | 0.00 | 33 | 1014.2 |
| 20260507191535 | 62 | 253 | 1.7 | 7.8 | 0.00 | 0.00 | 0.00 | 36 | 1014.5 |
| 20260507190936 | 63 | 260 | 2.6 | 7.8 | 0.00 | 0.00 | 0.00 | 36 | 1014.5 |
| 20260507185724 | 64 | 221 | 2.6 | 6.1 | 0.00 | 0.00 | 0.00 | 33 | 1014.5 |
| 20260507185150 | 64 | 256 | 7.0 | 7.8 | 0.00 | 0.00 | 0.00 | 33 | 1014.5 |
| 20260507184549 | 64 | 149 | 1.7 | 6.1 | 0.00 | 0.00 | 0.00 | 34 | 1014.9 |
| 20260507183952 | 65 | 170 | 1.7 | 6.1 | 0.00 | 0.00 | 0.00 | 40 | 1014.5 |
| 20260507183308 | 64 | 223 | 3.5 | 7.0 | 0.00 | 0.00 | 0.00 | 44 | 1014.9 |
| 20260507182714 | 63 | 285 | 5.2 | 7.8 | 0.00 | 0.00 | 0.00 | 41 | 1014.5 |
| 20260507182150 | 62 | 259 | 3.5 | 3.5 | 0.00 | 0.00 | 0.00 | 43 | 1014.5 |
| 20260507181510 | 62 | 48 | 2.6 | 5.2 | 0.00 | 0.00 | 0.00 | 38 | 1014.5 |
| 20260507180928 | 60 | 348 | 5.2 | 9.6 | 0.00 | 0.00 | 0.00 | 40 | 1014.9 |
| 20260507180324 | 63 | 249 | 6.1 | 7.0 | 0.00 | 0.00 | 0.00 | 38 | 1014.5 |
| 20260507174520 | 62 | 258 | 7.0 | 8.7 | 0.00 | 0.00 | 0.00 | 41 | 1014.9 |
| 20260507173945 | 62 | 248 | 9.6 | 12.2 | 0.00 | 0.00 | 0.00 | 41 | 1014.9 |
| 20260507172732 | 63 | 189 | 4.3 | 5.2 | 0.00 | 0.00 | 0.00 | 45 | 1014.9 |
| 20260507172129 | 60 | 257 | 3.5 | 8.7 | 0.00 | 0.00 | 0.00 | 50 | 1014.9 |
| 20260507170911 | 62 | 222 | 2.6 | 5.2 | 0.00 | 0.00 | 0.00 | 43 | 1015.2 |
| 20260507170321 | 61 | 264 | 3.5 | 13.0 | 0.00 | 0.00 | 0.00 | 42 | 1015.2 |
| 20260507165750 | 59 | 269 | 3.5 | 8.7 | 0.00 | 0.00 | 0.00 | 48 | 1015.5 |
| 20260507165135 | 59 | 333 | 2.6 | 7.8 | 0.00 | 0.00 | 0.00 | 51 | 1015.5 |
| 20260507163923 | 62 | 335 | 5.2 | 12.2 | 0.00 | 0.00 | 0.00 | 44 | 1015.5 |
| 20260507162722 | 62 | 189 | 3.5 | 6.1 | 0.00 | 0.00 | 0.00 | 42 | 1015.5 |
| 20260507162152 | 61 | 140 | 0.9 | 2.6 | 0.00 | 0.00 | 0.00 | 41 | 1015.5 |
| 20260507161555 | 60 | 246 | 5.2 | 6.1 | 0.00 | 0.00 | 0.00 | 43 | 1015.5 |
| 20260507160923 | 58 | 211 | 1.7 | 1.7 | 0.00 | 0.00 | 0.00 | 47 | 1015.9 |
| 20260507160346 | 58 | 10 | 4.3 | 6.1 | 0.00 | 0.00 | 0.00 | 46 | 1015.9 |
| 20260507155731 | 59 | 241 | 1.7 | 5.2 | 0.00 | 0.00 | 0.00 | 55 | 1015.9 |
| 20260507155123 | 60 | 221 | 3.5 | 5.2 | 0.00 | 0.00 | 0.00 | 47 | 1015.5 |
| 20260507154519 | 59 | 233 | 3.5 | 5.2 | 0.00 | 0.00 | 0.00 | 46 | 1015.9 |
| 20260507153911 | 60 | 245 | 5.2 | 8.7 | 0.00 | 0.00 | 0.00 | 47 | 1015.9 |
| 20260507153316 | 60 | 235 | 5.2 | 7.8 | 0.00 | 0.00 | 0.00 | 50 | 1015.9 |
| 20260507152750 | 60 | 256 | 5.2 | 8.7 | 0.00 | 0.00 | 0.00 | 47 | 1015.9 |
| 20260507151534 | 59 | 2 | 5.2 | 7.8 | 0.00 | 0.00 | 0.00 | 47 | 1015.9 |
| 20260507150347 | 59 | 266 | 2.6 | 7.8 | 0.00 | 0.00 | 0.00 | 51 | 1015.9 |
| 20260507145715 | 58 | 24 | 1.7 | 6.1 | 0.00 | 0.00 | 0.00 | 45 | 1016.2 |
| 20260507145111 | 57 | 0 | 3.5 | 7.8 | 0.00 | 0.00 | 0.00 | 51 | 1016.5 |
| 20260507144515 | 58 | 242 | 1.7 | 6.1 | 0.00 | 0.00 | 0.00 | 48 | 1016.2 |
| 20260507143939 | 58 | 5 | 5.2 | 9.6 | 0.00 | 0.00 | 0.00 | 48 | 1016.2 |
| 20260507143320 | 57 | 235 | 1.7 | 2.6 | 0.00 | 0.00 | 0.00 | 55 | 1016.2 |
| 20260507142123 | 57 | 190 | 1.7 | 2.6 | 0.00 | 0.00 | 0.00 | 58 | 1016.2 |
| 20260507141518 | 57 | 261 | 1.7 | 6.1 | 0.00 | 0.00 | 0.00 | 52 | 1016.5 |
| 20260507140926 | 56 | 9 | 2.6 | 6.1 | 0.00 | 0.00 | 0.00 | 55 | 1016.9 |
| 20260507140342 | 57 | 1 | 7.0 | 8.7 | 0.00 | 0.00 | 0.00 | 54 | 1016.5 |
| 20260507135144 | 58 | 82 | 2.6 | 2.6 | 0.00 | 0.00 | 0.00 | 52 | 1016.9 |
| 20260507134519 | 58 | 119 | 0.0 | 0.9 | 0.00 | 0.00 | 0.00 | 59 | 1016.9 |
| 20260507133319 | 56 | 174 | 1.7 | 0.9 | 0.00 | 0.00 | 0.00 | 56 | 1016.9 |
| 20260507132743 | 56 | 158 | 0.9 | 0.9 | 0.00 | 0.00 | 0.00 | 59 | 1017.2 |
| 20260507132122 | 55 | 149 | 0.0 | 0.0 | 0.00 | 0.00 | 0.00 | 65 | 1017.2 |
| 20260507130911 | 54 | 135 | 0.9 | 0.9 | 0.00 | 0.00 | 0.00 | 71 | 1016.9 |
| 20260507130312 | 53 | 135 | 0.9 | 0.9 | 0.00 | 0.00 | 0.00 | 74 | 1016.9 |
| 20260507124550 | 49 | 141 | 0.0 | 0.0 | 0.00 | 0.00 | 0.00 | 92 | 1017.2 |
| 20260507123943 | 48 | 142 | 0.0 | 0.9 | 0.00 | 0.00 | 0.00 | 94 | 1017.2 |
| 20260507123343 | 48 | 131 | 0.0 | 0.0 | 0.00 | 0.00 | 0.00 | 96 | 1017.2 |
| 20260507122748 | 47 | 131 | 0.0 | 0.9 | 0.00 | 0.00 | 0.00 | 97 | 1017.2 |
| 20260507122127 | 46 | 115 | 0.0 | 0.9 | 0.00 | 0.00 | 0.00 | 98 | 1017.6 |
| 20260507120340 | 44 | 173 | 0.0 | 0.0 | 0.00 | 0.00 | 0.00 | 98 | 1017.2 |
| 20260507115712 | 44 | 173 | 0.0 | 0.0 | 0.00 | 0.00 | 0.00 | 98 | 1017.2 |
| 20260507115147 | 44 | 173 | 0.0 | 0.9 | 0.00 | 0.00 | 0.00 | 98 | 1017.2 |
| 20260507114527 | 43 | 173 | 0.0 | 0.9 | 0.00 | 0.00 | 0.00 | 98 | 1017.2 |
| 20260507113916 | 43 | 173 | 0.0 | 0.0 | 0.00 | 0.00 | 0.00 | 98 | 1017.2 |
| 20260507113326 | 43 | 173 | 0.0 | 0.9 | 0.00 | 0.00 | 0.00 | 98 | 1016.9 |
| 20260507112752 | 43 | 172 | 0.0 | 0.0 | 0.00 | 0.00 | 0.00 | 98 | 1016.9 |
| 20260507111513 | 43 | 172 | 0.0 | 0.9 | 0.00 | 0.00 | 0.00 | 98 | 1016.9 |
| 20260507110940 | 43 | 172 | 0.0 | 0.0 | 0.00 | 0.00 | 0.00 | 98 | 1016.5 |
| 20260507110320 | 43 | 172 | 0.0 | 0.0 | 0.00 | 0.00 | 0.00 | 98 | 1016.5 |
| 20260507105718 | 43 | 173 | 0.0 | 0.0 | 0.00 | 0.00 | 0.00 | 98 | 1016.5 |
| 20260507105143 | 43 | 105 | 0.0 | 0.0 | 0.00 | 0.00 | 0.00 | 98 | 1016.5 |
| 20260507104546 | 43 | 105 | 0.0 | 0.0 | 0.00 | 0.00 | 0.00 | 98 | 1016.5 |
| 20260507103320 | 44 | 105 | 0.0 | 0.0 | 0.00 | 0.00 | 0.00 | 98 | 1016.2 |
| 20260507102729 | 44 | 105 | 0.0 | 0.0 | 0.00 | 0.00 | 0.00 | 98 | 1016.5 |
| 20260507101525 | 44 | 105 | 0.0 | 0.9 | 0.00 | 0.00 | 0.00 | 98 | 1016.2 |
| 20260507100912 | 44 | 105 | 0.0 | 0.0 | 0.00 | 0.00 | 0.00 | 98 | 1016.2 |
| 20260507100332 | 44 | 105 | 0.0 | 0.0 | 0.00 | 0.00 | 0.00 | 98 | 1016.2 |
| 20260507095740 | 43 | 105 | 0.0 | 0.0 | 0.00 | 0.00 | 0.00 | 98 | 1016.2 |
| 20260507095110 | 43 | 105 | 0.0 | 0.0 | 0.00 | 0.00 | 0.00 | 98 | 1016.2 |
| 20260507093930 | 43 | 105 | 0.0 | 0.0 | 0.00 | 0.00 | 0.00 | 97 | 1016.2 |
| 20260507093344 | 43 | 105 | 0.0 | 0.0 | 0.00 | 0.00 | 0.00 | 97 | 1016.2 |